{"data":{"norad_id":36795,"epoch":"2026-05-25T04:42:45.165312Z","epoch_age_seconds":64816,"freshness":"FRESH","line1":"1 36795U 10035A   26145.19635608  .00000311  00000+0  49620-4 0  9994","line2":"2 36795  97.9967 195.8913 0010019 265.1003  94.9064 14.78626699856451","mean_motion":14.78626699,"eccentricity":0.0010019,"inclination_deg":97.9967,"raan_deg":195.8913,"arg_perigee_deg":265.1003,"mean_anomaly_deg":94.9064,"bstar":4.962e-5,"rev_number":85645,"period_min":97.387663902855,"perigee_km":626.63721157821,"apogee_km":640.68745508234,"semimajor_km":7011.7993333303,"source":"CELESTRAK","updated_at":"2026-05-25T13:38:12.777932Z"}}